TimeEST,TemperatureF,Dew PointF,Humidity,Sea Level PressureIn,VisibilityMPH,Wind Direction,Wind SpeedMPH,Gust SpeedMPH,PrecipitationIn,Events,Conditions,WindDirDegrees,DateUTC
12:15 AM,33.8,32.0,93,29.95,2.0,Calm,Calm,-,0.01,Snow,Light Snow,0,2013-02-24 05:15:00
12:51 AM,33.1,30.9,92,29.94,3.0,NNE,3.5,-,0.02,Snow,Light Snow,30,2013-02-24 05:51:00
1:51 AM,33.1,32.0,96,29.91,4.0,North,3.5,-,0.01,,Overcast,10,2013-02-24 06:51:00
2:51 AM,33.1,32.0,96,29.88,2.5,North,4.6,-,0.00,Snow,Light Snow,10,2013-02-24 07:51:00
3:28 AM,33.8,32.0,93,29.86,3.0,NNE,3.5,-,0.02,Snow,Light Snow,20,2013-02-24 08:28:00
3:51 AM,33.1,32.0,96,29.85,4.0,NNE,5.8,-,0.02,,Overcast,30,2013-02-24 08:51:00
4:33 AM,33.8,32.0,93,29.84,2.0,NNE,4.6,-,0.01,Snow,Light Snow,20,2013-02-24 09:33:00
4:40 AM,33.8,32.0,93,29.84,1.8,North,4.6,-,0.01,Snow,Light Snow,10,2013-02-24 09:40:00
4:51 AM,33.1,32.0,96,29.84,2.0,NNE,4.6,-,0.02,Snow,Light Snow,20,2013-02-24 09:51:00
5:03 AM,33.8,32.0,93,29.84,1.8,North,3.5,-,0.01,Snow,Light Snow,10,2013-02-24 10:03:00
5:39 AM,33.8,30.2,87,29.84,1.0,North,4.6,-,0.04,Snow,Light Snow,10,2013-02-24 10:39:00
5:49 AM,33.8,30.2,87,29.84,1.0,North,6.9,-,0.05,Snow,Light Snow,10,2013-02-24 10:49:00
5:51 AM,33.1,30.9,92,29.84,1.0,North,5.8,-,0.05,Snow,Light Snow,360,2013-02-24 10:51:00
5:58 AM,33.8,30.2,87,29.84,1.2,North,5.8,-,0.00,Snow,Light Snow,350,2013-02-24 10:58:00
6:51 AM,33.1,30.9,92,29.83,0.8,NNE,8.1,-,0.04,Snow,Light Snow,20,2013-02-24 11:51:00
7:34 AM,33.8,30.2,87,29.82,1.2,NNE,5.8,-,0.03,Snow,Light Snow,20,2013-02-24 12:34:00
7:51 AM,32.0,30.9,96,29.83,1.0,NNE,6.9,-,0.04,Snow,Light Snow,20,2013-02-24 12:51:00
8:07 AM,32.0,30.2,93,29.83,0.8,NNE,8.1,-,0.01,Snow,Light Snow,20,2013-02-24 13:07:00
8:14 AM,32.0,30.2,93,29.82,1.0,North,8.1,-,0.01,Snow,Light Snow,10,2013-02-24 13:14:00
8:30 AM,32.0,30.2,93,29.81,0.8,North,9.2,-,0.03,Snow,Light Snow,10,2013-02-24 13:30:00
8:48 AM,32.0,30.2,93,29.80,0.2,North,6.9,-,0.05,Fog-Snow,Heavy Snow,10,2013-02-24 13:48:00
8:51 AM,32.0,30.9,96,29.81,0.2,NNE,10.4,-,0.05,Fog-Snow,Heavy Snow,20,2013-02-24 13:51:00
9:25 AM,32.0,30.2,93,29.79,0.5,North,8.1,-,0.04,Fog-Snow,Snow,10,2013-02-24 14:25:00
9:34 AM,32.0,30.2,93,29.79,0.2,North,10.4,-,0.05,Fog-Snow,Heavy Snow,10,2013-02-24 14:34:00
9:51 AM,32.0,30.9,96,29.79,0.2,North,9.2,-,0.08,Fog-Snow,Heavy Snow,10,2013-02-24 14:51:00
10:19 AM,32.0,30.2,93,29.78,0.2,North,9.2,-,0.05,Fog-Snow,Heavy Snow,10,2013-02-24 15:19:00
10:51 AM,32.0,30.0,92,29.78,0.2,North,10.4,-,0.12,Fog-Snow,Heavy Snow,10,2013-02-24 15:51:00
11:51 AM,32.0,30.9,96,29.76,0.2,North,9.2,-,0.09,Fog-Snow,Heavy Snow,360,2013-02-24 16:51:00
12:13 PM,32.0,30.2,93,29.76,0.5,North,13.8,19.6,0.02,Fog-Snow,Snow,360,2013-02-24 17:13:00
12:49 PM,32.0,30.2,93,29.75,0.2,NNE,9.2,-,0.04,Fog-Snow,Heavy Snow,20,2013-02-24 17:49:00
12:51 PM,32.0,30.0,92,29.75,0.2,North,10.4,-,0.04,Fog-Snow,Heavy Snow,10,2013-02-24 17:51:00
1:23 PM,32.0,30.2,93,29.74,0.5,NNE,9.2,-,0.01,Fog-Snow,Snow,20,2013-02-24 18:23:00
1:36 PM,32.0,30.2,93,29.74,0.2,North,10.4,17.3,0.03,Fog-Snow,Heavy Snow,10,2013-02-24 18:36:00
1:44 PM,32.0,30.2,93,29.74,0.2,NNE,8.1,17.3,0.03,Fog-Snow,Heavy Snow,20,2013-02-24 18:44:00
1:51 PM,32.0,30.0,92,29.74,0.2,North,9.2,-,0.04,Fog-Snow,Heavy Snow,10,2013-02-24 18:51:00
2:14 PM,30.2,30.2,100,29.73,0.5,North,9.2,-,0.02,Fog-Snow,Snow,10,2013-02-24 19:14:00
2:51 PM,30.9,30.0,96,29.73,1.0,North,9.2,-,0.03,Snow,Light Snow,10,2013-02-24 19:51:00
3:35 PM,30.2,28.4,93,29.74,2.0,North,8.1,-,0.00,Snow,Light Snow,10,2013-02-24 20:35:00
3:51 PM,30.9,28.9,92,29.75,2.0,North,10.4,-,0.00,Snow,Light Snow,10,2013-02-24 20:51:00
4:04 PM,30.2,28.4,93,29.75,3.0,North,10.4,-,0.00,,Overcast,360,2013-02-24 21:04:00
4:35 PM,30.2,28.4,93,29.76,2.0,North,8.1,-,0.00,,Overcast,360,2013-02-24 21:35:00
4:40 PM,30.2,28.4,93,29.76,1.8,North,9.2,-,0.00,Snow,Light Snow,360,2013-02-24 21:40:00
4:51 PM,30.9,28.9,92,29.76,1.2,North,8.1,-,0.00,Snow,Light Snow,360,2013-02-24 21:51:00
5:01 PM,30.2,28.4,93,29.76,1.2,North,9.2,-,0.00,Snow,Light Snow,360,2013-02-24 22:01:00
5:32 PM,30.2,28.4,93,29.77,1.2,North,10.4,-,0.00,Snow,Light Snow,360,2013-02-24 22:32:00
5:39 PM,30.2,28.4,93,29.78,1.8,North,8.1,-,0.00,Snow,Light Snow,350,2013-02-24 22:39:00
5:46 PM,30.2,28.4,93,29.78,2.0,North,11.5,-,0.00,Snow,Light Snow,350,2013-02-24 22:46:00
5:47 PM,30.0,28.0,92,29.78,2.0,North,11.5,-,0.00,Snow,Light Snow,360,2013-02-24 22:47:00
6:08 PM,30.2,28.4,93,29.78,1.8,North,8.1,-,0.01,Snow,Light Snow,350,2013-02-24 23:08:00
6:51 PM,30.0,28.0,92,29.81,1.5,North,8.1,-,0.01,Snow,Light Snow,360,2013-02-24 23:51:00
7:00 PM,30.2,28.4,93,29.81,1.5,North,5.8,-,0.01,Snow,Light Snow,10,2013-02-25 00:00:00
7:10 PM,30.2,28.4,93,29.81,1.5,North,5.8,-,0.01,Snow,Light Snow,360,2013-02-25 00:10:00
7:19 PM,30.2,28.4,93,29.82,1.2,North,4.6,-,0.01,Snow,Light Snow,360,2013-02-25 00:19:00
7:28 PM,30.2,28.4,93,29.82,1.2,North,5.8,-,0.01,Snow,Light Snow,360,2013-02-25 00:28:00
7:48 PM,30.2,28.4,93,29.83,1.5,North,5.8,-,0.02,Snow,Light Snow,350,2013-02-25 00:48:00
7:51 PM,30.0,28.0,92,29.83,1.5,North,6.9,-,0.02,Snow,Light Snow,350,2013-02-25 00:51:00
8:05 PM,30.2,28.4,93,29.83,1.5,North,8.1,-,0.00,Snow,Light Snow,360,2013-02-25 01:05:00
8:51 PM,30.0,27.0,88,29.85,1.2,North,5.8,-,0.01,Snow,Light Snow,10,2013-02-25 01:51:00
9:40 PM,28.4,26.6,93,29.86,2.0,North,5.8,-,0.01,Snow,Light Snow,360,2013-02-25 02:40:00
9:51 PM,28.9,27.0,92,29.86,2.0,North,4.6,-,0.01,Snow,Light Snow,360,2013-02-25 02:51:00
10:00 PM,28.4,26.6,93,29.86,1.8,North,5.8,-,0.00,Snow,Light Snow,360,2013-02-25 03:00:00
10:18 PM,28.4,26.6,93,29.86,2.0,North,5.8,-,0.01,Snow,Light Snow,350,2013-02-25 03:18:00
10:29 PM,28.4,26.6,93,29.87,1.8,North,5.8,-,0.01,Snow,Light Snow,350,2013-02-25 03:29:00
10:36 PM,28.4,26.6,93,29.87,2.0,NNW,5.8,-,0.01,Snow,Light Snow,340,2013-02-25 03:36:00
10:51 PM,28.9,27.0,92,29.87,2.5,North,4.6,-,0.01,Snow,Light Snow,350,2013-02-25 03:51:00
11:35 PM,28.4,26.6,93,29.88,2.5,NNW,4.6,-,0.00,Snow,Light Snow,340,2013-02-25 04:35:00
11:51 PM,28.9,27.0,92,29.88,3.0,NNW,5.8,-,0.00,Snow,Light Snow,330,2013-02-25 04:51:00